• In Deutschland
  • Länderverzeichnis
  • Für 7 Tage
  • Wassertemperatur
  • Satellitenkarten
  • Wetterkarte
  • Widgets
  • user-avatar
    Anmelden

    Stündliche Wetter Passau

    Heute, 25 April, Mittwoch

    Zeit Temperatur Niederschläge Wind Luftdruck Luftfeuchtigkeit
    00:00 +13°C° 0 mm 1 m/S 727 mmHg 90%
    01:00 +13°C° 0 mm 1 m/S 727 mmHg 90%
    02:00 +12°C° 0 mm 1 m/S 727 mmHg 90%
    03:00 +12°C° 0 mm 1 m/S 726 mmHg 91%
    04:00 +12°C° 0 mm 1 m/S 726 mmHg 91%
    05:00 +13°C° 0 mm 1 m/S 726 mmHg 87%
    06:00 +14°C° 0 mm 2 m/S 726 mmHg 83%
    07:00 +15°C° 0 mm 2 m/S 726 mmHg 79%
    08:00 +17°C° 0 mm 3 m/S 726 mmHg 72%
    09:00 +19°C° 0 mm 4 m/S 726 mmHg 65%
    10:00 +21°C° 0 mm 5 m/S 726 mmHg 58%
    11:00 +21°C° 0,1 mm 5 m/S 726 mmHg 57%
    12:00 +22°C° 0,1 mm 5 m/S 725 mmHg 56%
    13:00 +23°C° 0,1 mm 6 m/S 725 mmHg 55%
    14:00 +22°C° 0,2 mm 5 m/S 725 mmHg 56%
    15:00 +22°C° 0,2 mm 5 m/S 725 mmHg 58%
    16:00 +22°C° 0,2 mm 5 m/S 724 mmHg 60%
    17:00 +20°C° 0,1 mm 4 m/S 725 mmHg 67%
    18:00 +18°C° 0,1 mm 3 m/S 725 mmHg 74%
    19:00 +16°C° 0,1 mm 2 m/S 725 mmHg 81%
    20:00 +16°C° 0,1 mm 2 m/S 725 mmHg 83%
    21:00 +15°C° 0,1 mm 2 m/S 726 mmHg 85%
    22:00 +14°C° 0,1 mm 2 m/S 726 mmHg 87%
    23:00 +13°C° 0,1 mm 2 m/S 727 mmHg 88%

    Morgen, 26 April, Donnerstag

    Zeit Temperatur Niederschläge Wind Luftdruck Luftfeuchtigkeit
    00:00 +13°C° 0,1 mm 2 m/S 727 mmHg 89%
    01:00 +12°C° 0,1 mm 2 m/S 727 mmHg 90%
    02:00 +12°C° 0,2 mm 2 m/S 727 mmHg 91%
    03:00 +10°C° 0,2 mm 2 m/S 727 mmHg 91%
    04:00 +10°C° 0,2 mm 2 m/S 727 mmHg 92%
    05:00 +10°C° 0,1 mm 2 m/S 728 mmHg 90%
    06:00 +10°C° 0,1 mm 3 m/S 728 mmHg 89%
    07:00 +10°C° 0,1 mm 3 m/S 728 mmHg 87%
    08:00 +10°C° 0,2 mm 3 m/S 728 mmHg 82%
    09:00 +11°C° 0,2 mm 3 m/S 728 mmHg 77%
    10:00 +11°C° 0,2 mm 4 m/S 729 mmHg 72%
    11:00 +11°C° 0,2 mm 4 m/S 729 mmHg 71%
    12:00 +12°C° 0,2 mm 4 m/S 729 mmHg 70%
    13:00 +12°C° 0,2 mm 4 m/S 729 mmHg 69%
    14:00 +12°C° 0,1 mm 4 m/S 729 mmHg 65%
    15:00 +13°C° 0,1 mm 4 m/S 729 mmHg 62%
    16:00 +13°C° 0,1 mm 5 m/S 729 mmHg 59%
    17:00 +12°C° 0 mm 4 m/S 729 mmHg 63%
    18:00 +11°C° 0 mm 3 m/S 729 mmHg 67%
    19:00 +10°C° 0 mm 2 m/S 729 mmHg 71%
    20:00 +9°C° 0 mm 2 m/S 729 mmHg 74%
    21:00 +9°C° 0 mm 1 m/S 730 mmHg 77%
    22:00 +8°C° 0 mm 1 m/S 730 mmHg 80%
    23:00 +7°C° 0 mm 1 m/S 730 mmHg 81%

    übermorgen, 27 April, Freitag

    Zeit Temperatur Niederschläge Wind Luftdruck Luftfeuchtigkeit
    00:00 +7°C° 0 mm 1 m/S 730 mmHg 82%
    01:00 +6°C° 0 mm 1 m/S 730 mmHg 83%
    02:00 +6°C° 0 mm 1 m/S 729 mmHg 83%
    03:00 +6°C° 0 mm 1 m/S 729 mmHg 83%
    04:00 +6°C° 0 mm 1 m/S 729 mmHg 84%
    05:00 +7°C° 0 mm 1 m/S 729 mmHg 79%
    06:00 +8°C° 0 mm 1 m/S 728 mmHg 75%
    07:00 +9°C° 0 mm 2 m/S 728 mmHg 70%
    08:00 +12°C° 0 mm 2 m/S 728 mmHg 64%
    09:00 +13°C° 0 mm 3 m/S 727 mmHg 58%
    10:00 +15°C° 0 mm 4 m/S 727 mmHg 51%
    11:00 +17°C° 0 mm 4 m/S 726 mmHg 51%
    12:00 +19°C° 0 mm 4 m/S 726 mmHg 50%
    13:00 +20°C° 0 mm 4 m/S 725 mmHg 50%
    14:00 +21°C° 0 mm 3 m/S 725 mmHg 50%
    15:00 +21°C° 0 mm 3 m/S 724 mmHg 51%
    16:00 +21°C° 0 mm 3 m/S 724 mmHg 52%
    17:00 +20°C° 0 mm 2 m/S 724 mmHg 61%
    18:00 +18°C° 0 mm 2 m/S 724 mmHg 69%
    19:00 +16°C° 0 mm 1 m/S 724 mmHg 77%
    20:00 +15°C° 0,1 mm 1 m/S 724 mmHg 79%
    21:00 +14°C° 0,1 mm 1 m/S 725 mmHg 80%
    22:00 +14°C° 0,1 mm 1 m/S 725 mmHg 82%
    23:00 +14°C° 0,1 mm 1 m/S 725 mmHg 84%

    28 April, Samstag

    Zeit Temperatur Niederschläge Wind Luftdruck Luftfeuchtigkeit
    00:00 +13°C° 0,1 mm 1 m/S 726 mmHg 85%
    01:00 +13°C° 0,1 mm 1 m/S 726 mmHg 86%
    02:00 +13°C° 0,1 mm 1 m/S 726 mmHg 89%
    03:00 +13°C° 0,1 mm 1 m/S 726 mmHg 91%
    04:00 +13°C° 0,1 mm 1 m/S 727 mmHg 93%
    05:00 +13°C° 0 mm 1 m/S 727 mmHg 92%
    06:00 +13°C° 0 mm 1 m/S 727 mmHg 91%
    07:00 +13°C° 0 mm 1 m/S 727 mmHg 91%
    08:00 +14°C° 0 mm 1 m/S 727 mmHg 84%
    09:00 +16°C° 0 mm 1 m/S 728 mmHg 77%
    10:00 +18°C° 0 mm 1 m/S 728 mmHg 70%
    11:00 +19°C° 0 mm 1 m/S 728 mmHg 64%
    12:00 +21°C° 0 mm 1 m/S 727 mmHg 58%
    13:00 +22°C° 0 mm 1 m/S 727 mmHg 52%
    14:00 +22°C° 0,1 mm 1 m/S 727 mmHg 54%
    15:00 +22°C° 0,1 mm 1 m/S 727 mmHg 56%
    16:00 +22°C° 0,1 mm 1 m/S 726 mmHg 58%
    17:00 +19°C° 0,1 mm 2 m/S 726 mmHg 66%
    18:00 +18°C° 0,1 mm 2 m/S 726 mmHg 74%
    19:00 +16°C° 0,1 mm 2 m/S 726 mmHg 82%
    20:00 +15°C° 0 mm 2 m/S 726 mmHg 85%
    21:00 +14°C° 0 mm 2 m/S 726 mmHg 88%
    22:00 +13°C° 0 mm 1 m/S 726 mmHg 91%
    23:00 +13°C° 0 mm 1 m/S 726 mmHg 92%

    29 April, Sonntag

    Zeit Temperatur Niederschläge Wind Luftdruck Luftfeuchtigkeit
    00:00 +12°C° 0 mm 1 m/S 726 mmHg 92%
    01:00 +12°C° 0 mm 1 m/S 726 mmHg 93%
    02:00 +12°C° 0 mm 1 m/S 726 mmHg 94%
    03:00 +11°C° 0 mm 1 m/S 725 mmHg 95%
    04:00 +11°C° 0 mm 1 m/S 725 mmHg 95%
    05:00 +12°C° 0 mm 1 m/S 725 mmHg 92%
    06:00 +13°C° 0 mm 1 m/S 725 mmHg 89%
    07:00 +14°C° 0 mm 1 m/S 725 mmHg 87%
    08:00 +16°C° 0 mm 1 m/S 725 mmHg 79%
    09:00 +18°C° 0 mm 2 m/S 725 mmHg 72%
    10:00 +20°C° 0 mm 2 m/S 725 mmHg 65%
    11:00 +23°C° 0 mm 2 m/S 724 mmHg 61%
    12:00 +24°C° 0 mm 2 m/S 724 mmHg 57%
    13:00 +25°C° 0 mm 3 m/S 724 mmHg 52%
    14:00 +25°C° 0 mm 2 m/S 723 mmHg 51%
    15:00 +26°C° 0 mm 2 m/S 723 mmHg 50%
    16:00 +26°C° 0 mm 2 m/S 723 mmHg 49%
    17:00 +24°C° 0 mm 2 m/S 722 mmHg 58%
    18:00 +21°C° 0 mm 2 m/S 722 mmHg 66%
    19:00 +19°C° 0 mm 2 m/S 722 mmHg 75%
    20:00 +18°C° 0 mm 2 m/S 722 mmHg 77%
    21:00 +17°C° 0 mm 2 m/S 722 mmHg 80%
    22:00 +16°C° 0 mm 2 m/S 722 mmHg 83%
    23:00 +15°C° 0 mm 2 m/S 721 mmHg 84%

    30 April, Montag

    Zeit Temperatur Niederschläge Wind Luftdruck Luftfeuchtigkeit
    00:00 +15°C° 0 mm 2 m/S 721 mmHg 84%
    01:00 +14°C° 0 mm 1 m/S 721 mmHg 85%
    02:00 +14°C° 0 mm 1 m/S 720 mmHg 86%
    03:00 +13°C° 0 mm 1 m/S 720 mmHg 87%
    04:00 +13°C° 0 mm 1 m/S 720 mmHg 88%
    05:00 +14°C° 0 mm 1 m/S 720 mmHg 84%
    06:00 +15°C° 0 mm 1 m/S 720 mmHg 80%
    07:00 +16°C° 0 mm 1 m/S 720 mmHg 76%
    08:00 +19°C° 0 mm 1 m/S 720 mmHg 67%
    09:00 +21°C° 0 mm 2 m/S 720 mmHg 59%
    10:00 +24°C° 0 mm 2 m/S 720 mmHg 51%
    11:00 +25°C° 0 mm 2 m/S 720 mmHg 48%
    12:00 +26°C° 0 mm 2 m/S 720 mmHg 45%
    13:00 +27°C° 0 mm 2 m/S 720 mmHg 42%
    14:00 +26°C° 0,4 mm 3 m/S 720 mmHg 50%
    15:00 +23°C° 0,4 mm 4 m/S 721 mmHg 57%
    16:00 +21°C° 0,4 mm 5 m/S 721 mmHg 65%
    17:00 +19°C° 0,9 mm 5 m/S 721 mmHg 73%
    18:00 +17°C° 0,9 mm 4 m/S 722 mmHg 81%
    19:00 +16°C° 0,9 mm 3 m/S 722 mmHg 89%
    20:00 +14°C° 0,4 mm 3 m/S 723 mmHg 90%
    21:00 +14°C° 0,4 mm 2 m/S 723 mmHg 91%
    22:00 +13°C° 0,4 mm 2 m/S 724 mmHg 92%
    23:00 +13°C° 0 mm 2 m/S 724 mmHg 93%
    Mehr zeigen